CW5456 Hansville WA US current weather conditions

sailwx.info

Wind from 017 at 0 knots gusting 2

Air temperature 7.2° C
Dewpoint 6.2° C

Last reported at 2017-Apr-27 16:09 UTC.
Time now 2017-Apr-27 16:54 UTC

Location: N 47°55' W 122°35'.
View on Google Maps.

See reports from other nearby stations

  
Tides and Currents Weather Stations Pressure Air Temp Water Temp Dewpoint Dewpoint Depression Visibility Wind Speed Wind Dir Waves Ship Positions
date/time (UTC)wind fromknots sea level pressurealtimeterstation pressurevisibilityair tempwater tempwave heightnotes
2017-Apr-27 16:09 017 0 gusting 2 7.2
2017-Apr-27 16:04 017 7.2
2017-Apr-27 15:59 017 0 gusting 2 7.2
2017-Apr-27 15:54 017 1 gusting 3 6.7
2017-Apr-27 15:49 017 1 gusting 3 7.2
2017-Apr-27 15:44 036 2 gusting 3 7.2
2017-Apr-27 15:39 086 2 gusting 3 7.2
2017-Apr-27 15:34 091 7.2
2017-Apr-27 15:29 091 7.2
2017-Apr-27 15:24 092 7.2
2017-Apr-27 15:19 066 0 gusting 5 7.2
2017-Apr-27 15:14 066 3 gusting 5 7.2
2017-Apr-27 15:09 123 7.2
2017-Apr-27 15:04 123 1 gusting 2 6.7
2017-Apr-27 14:55 123 0 gusting 3 6.7
2017-Apr-27 14:49 123 6.7
2017-Apr-27 14:40 122 1 gusting 4 6.7
2017-Apr-27 14:34 123 6.7
2017-Apr-27 14:25 129 2 gusting 4 6.1
2017-Apr-27 14:19 099 2 gusting 4 6.1
2017-Apr-27 14:14 127 2 gusting 5 6.1
2017-Apr-27 14:04 143 3 gusting 5 6.1
2017-Apr-27 13:59 132 3 gusting 5 6.1
2017-Apr-27 13:50 132 1 gusting 4 5.6
2017-Apr-27 13:45 132 1 gusting 4 5.6
2017-Apr-27 13:40 131 0 gusting 4 5.6
2017-Apr-27 13:35 131 0 gusting 4 5.6
2017-Apr-27 13:30 131 1 gusting 4 5.6
2017-Apr-27 13:25 131 3 gusting 4 5.0
2017-Apr-27 13:19 131 0 gusting 3 5.0
2017-Apr-27 13:10 131 1 gusting 3 5.0
2017-Apr-27 13:05 131 5.0
2017-Apr-27 13:00 131 5.0
2017-Apr-27 12:55 131 5.0
2017-Apr-27 12:50 131 5.0
2017-Apr-27 12:45 131 5.0
2017-Apr-27 12:40 131 5.0
2017-Apr-27 12:35 131 5.0
2017-Apr-27 12:30 131 5.0
2017-Apr-27 12:25 131 0 gusting 3 5.6
2017-Apr-27 12:20 131 5.6
2017-Apr-27 12:15 131 1 gusting 5 5.6
2017-Apr-27 12:10 139 2 gusting 7 5.6
2017-Apr-27 12:05 150 2 gusting 7 5.6
2017-Apr-27 12:00 127 1 gusting 3 5.6
2017-Apr-27 11:55 127 0 gusting 6 5.6
2017-Apr-27 11:50 125 1 gusting 6 5.6
2017-Apr-27 11:45 130 4 gusting 6 5.6
2017-Apr-27 11:40 131 1 gusting 6 5.6
2017-Apr-27 11:35 122 2 gusting 4 5.6
2017-Apr-27 11:30 120 2 gusting 5 5.6
2017-Apr-27 11:25 129 2 gusting 5 5.6
2017-Apr-27 11:20 128 4 gusting 5 5.6
2017-Apr-27 10:50 139 0 gusting 3 6.1
2017-Apr-27 10:45 139 0 gusting 3 6.1
2017-Apr-27 10:40 139 0 gusting 2 6.1
2017-Apr-27 10:30 139 0 gusting 3 6.7
2017-Apr-27 10:25 139 0 gusting 3 6.7
2017-Apr-27 10:20 139 2 gusting 2 6.7
2017-Apr-27 10:15 139 6.7
2017-Apr-27 10:10 139 6.7
2017-Apr-27 10:05 139 6.7
2017-Apr-27 09:55 139 0 gusting 3 6.7
2017-Apr-27 09:50 139 6.7
2017-Apr-27 09:45 139 0 gusting 3 6.7
2017-Apr-27 09:40 139 0 gusting 3 6.7
2017-Apr-27 09:35 139 2 gusting 2 6.7
2017-Apr-27 09:30 139 6.7
2017-Apr-27 09:25 139 6.7
2017-Apr-27 09:15 139 6.7
2017-Apr-27 09:10 139 6.7
2017-Apr-27 09:05 139 6.7
2017-Apr-27 09:00 139 0 gusting 5 6.7
2017-Apr-27 08:55 139 7.2
2017-Apr-27 08:50 140 0 gusting 6 7.2
2017-Apr-27 08:45 135 1 gusting 6 7.2
2017-Apr-27 08:40 138 5 gusting 5 7.2
2017-Apr-27 08:35 143 3 gusting 5 7.2
2017-Apr-27 08:30 129 2 gusting 4 7.2
2017-Apr-27 08:25 128 0 gusting 4 7.2
2017-Apr-27 08:20 129 1 gusting 5 7.2
2017-Apr-27 08:15 141 3 gusting 5 7.2
2017-Apr-27 08:10 158 7.2
2017-Apr-27 08:05 158 7.2
2017-Apr-27 08:00 158 7.2
2017-Apr-27 07:50 158 7.2
2017-Apr-27 07:45 158 2 gusting 2 7.2
2017-Apr-27 07:40 158 0 gusting 3 7.2
2017-Apr-27 07:35 158 0 gusting 3 7.2
2017-Apr-27 07:30 158 7.2
2017-Apr-27 07:25 152 0 gusting 5 7.2
2017-Apr-27 07:20 154 2 gusting 6 7.2
2017-Apr-27 07:15 124 0 gusting 6 7.2
2017-Apr-27 07:10 137 4 gusting 6 7.2
2017-Apr-27 07:05 128 1 gusting 6 7.2
2017-Apr-27 07:00 128 1 gusting 6 7.2
2017-Apr-27 06:55 137 4 gusting 5 7.2
2017-Apr-27 06:50 132 0 gusting 4 7.2
2017-Apr-27 06:45 132 0 gusting 5 7.2
2017-Apr-27 06:40 130 4 gusting 6 7.2
2017-Apr-27 06:35 125 1 gusting 6 7.2
2017-Apr-27 06:30 137 4 gusting 6 7.2
2017-Apr-27 06:25 133 1 gusting 6 7.2
2017-Apr-27 06:20 142 7.2
2017-Apr-27 06:15 139 2 gusting 5 7.2
2017-Apr-27 06:10 139 3 gusting 5 7.2
2017-Apr-27 06:05 127 2 gusting 5 7.2
2017-Apr-27 06:00 127 3 gusting 6 7.2
2017-Apr-27 05:55 129 4 gusting 7 7.2
2017-Apr-27 05:50 136 4 gusting 7 7.2
2017-Apr-27 05:45 141 5 gusting 7 7.2
2017-Apr-27 05:40 122 3 gusting 8 7.2
2017-Apr-27 05:35 120 3 gusting 8 7.8
2017-Apr-27 05:30 096 1 gusting 6 7.8
2017-Apr-27 05:25 092 4 gusting 6 7.8
2017-Apr-27 05:20 114 2 gusting 6 7.8
2017-Apr-27 05:15 112 4 gusting 6 7.8
2017-Apr-27 05:10 114 2 gusting 6 7.8
2017-Apr-27 05:05 099 6 gusting 6 7.8
2017-Apr-27 05:00 098 2 gusting 5 7.8
2017-Apr-27 04:55 129 5 gusting 5 7.8
2017-Apr-27 04:50 147 3 gusting 3 7.8
2017-Apr-27 04:45 148 1 gusting 3 7.8
2017-Apr-27 04:40 148 1 gusting 1 7.8
2017-Apr-27 04:35 149 7.8
2017-Apr-27 04:30 149 7.8
2017-Apr-27 04:25 149 1 gusting 2 7.8
2017-Apr-27 04:20 149 7.8
2017-Apr-27 04:15 149 0 gusting 3 7.8
2017-Apr-27 04:10 149 1 gusting 4 8.3
2017-Apr-27 04:05 151 1 gusting 4 8.3
2017-Apr-27 04:00 183 3 gusting 3 8.3
2017-Apr-27 03:55 309 2 gusting 3 8.3
2017-Apr-27 03:50 332 2 gusting 2 8.3
2017-Apr-27 03:45 332 0 gusting 2 8.3
2017-Apr-27 03:40 332 2 gusting 2 8.3
2017-Apr-27 03:35 332 0 gusting 1 8.3
2017-Apr-27 03:30 332 0 gusting 1 8.3
2017-Apr-27 03:25 332 1 gusting 1 8.3
2017-Apr-27 03:20 332 8.3
2017-Apr-27 03:15 332 8.3
2017-Apr-27 03:10 332 0 gusting 2 8.3
2017-Apr-27 03:05 332 0 gusting 4 8.3
2017-Apr-27 03:00 332 2 gusting 4 8.3
2017-Apr-27 02:55 298 2 gusting 2 8.3
2017-Apr-27 02:50 282 8.3
2017-Apr-27 02:45 282 8.3
2017-Apr-27 02:40 283 8.3
2017-Apr-27 02:35 282 8.3
2017-Apr-27 02:30 291 8.3
2017-Apr-27 02:25 337 2 gusting 2 8.3
2017-Apr-27 02:20 280 8.3
2017-Apr-27 02:15 281 8.3
2017-Apr-27 02:10 278 0 gusting 3 8.9
2017-Apr-27 02:05 270 8.9
2017-Apr-27 02:00 272 8.9
2017-Apr-27 01:55 267 0 gusting 6 8.9
2017-Apr-27 01:50 276 1 gusting 6 8.9
2017-Apr-27 01:45 272 8.9
2017-Apr-27 01:40 272 8.9
2017-Apr-27 01:35 268 8.9
2017-Apr-27 01:30 197 8.9
2017-Apr-27 01:25 257 9.4
2017-Apr-27 01:19 255 5 gusting 8 9.4
2017-Apr-27 01:15 272 10.0
2017-Apr-27 01:09 271 10.0
2017-Apr-27 01:05 272 9.4
2017-Apr-27 00:59 271 9.4
2017-Apr-27 00:54 272 3 gusting 13 9.4
2017-Apr-27 00:49 327 4 gusting 13 9.4
2017-Apr-27 00:44 347 4 gusting 6 10.0
2017-Apr-27 00:39 332 10.6
2017-Apr-27 00:34 337 10.6
2017-Apr-27 00:29 337 10.0
2017-Apr-27 00:24 332 10.0
2017-Apr-27 00:19 332 10.0
2017-Apr-27 00:14 342 1 gusting 1 10.0
2017-Apr-27 00:09 342 10.0
2017-Apr-27 00:04 342 10.0
2017-Apr-26 23:59 342 10.0
2017-Apr-26 23:54 342 10.0
2017-Apr-26 23:49 288 0 gusting 1 10.0
2017-Apr-26 23:44 287 9.4
2017-Apr-26 23:39 289 1 gusting 9 9.4
2017-Apr-26 23:34 295 0 gusting 9 9.4
2017-Apr-26 23:29 274 2 gusting 6 9.4
2017-Apr-26 23:24 239 1 gusting 2 9.4
2017-Apr-26 23:19 332 9.4
2017-Apr-26 23:14 337 1 gusting 2 10.0
2017-Apr-26 23:09 332 10.0
2017-Apr-26 23:00 337 10.0
2017-Apr-26 22:55 337 9.4
2017-Apr-26 22:49 332 9.4
2017-Apr-26 22:39 332 5 gusting 9 9.4
2017-Apr-26 22:30 290 8 gusting 9 9.4
2017-Apr-26 22:24 300 2 gusting 8 9.4
2017-Apr-26 22:19 288 5 gusting 8 9.4
2017-Apr-26 22:10 283 5 gusting 10 9.4
2017-Apr-26 22:05 289 6 gusting 13 9.4
2017-Apr-26 22:00 256 8 gusting 13 9.4
2017-Apr-26 21:55 299 5 gusting 8 9.4
2017-Apr-26 21:50 272 1 gusting 9 9.4
2017-Apr-26 21:44 208 1 gusting 10 9.4
2017-Apr-26 21:35 217 0 gusting 18 9.4
2017-Apr-26 21:30 222 9 gusting 18 10.0
2017-Apr-26 21:25 285 12 gusting 14 10.0
2017-Apr-26 21:19 228 10.0
2017-Apr-26 21:10 343 8 gusting 11 10.0
2017-Apr-26 21:05 303 5 gusting 11 10.0
2017-Apr-26 21:00 287 1 gusting 13 9.4
2017-Apr-26 20:55 296 5 gusting 14 9.4
2017-Apr-26 20:50 327 8 gusting 14 9.4
2017-Apr-26 20:45 290 12 gusting 14 9.4
2017-Apr-26 20:40 261 9 gusting 15 9.4
2017-Apr-26 20:35 283 13 gusting 15 9.4
2017-Apr-26 20:30 224 4 gusting 12 9.4
2017-Apr-26 20:25 276 2 gusting 11 9.4
2017-Apr-26 20:20 332 9 gusting 10 9.4
2017-Apr-26 20:15 016 1 gusting 4 9.4
2017-Apr-26 20:10 018 1 gusting 6 9.4
2017-Apr-26 20:05 004 4 gusting 6 9.4
2017-Apr-26 20:00 012 5 gusting 6 9.4
2017-Apr-26 19:55 013 4 gusting 6 9.4
2017-Apr-26 19:50 004 4 gusting 6 9.4
2017-Apr-26 19:45 9.4
2017-Apr-26 19:34 327 4 gusting 9 8.9
2017-Apr-26 19:24 289 8 gusting 11 8.9
2017-Apr-26 19:20 327 5 gusting 11 8.9
2017-Apr-26 19:14 327 6 gusting 10 9.4
2017-Apr-26 19:09 356 6 gusting 8 9.4
2017-Apr-26 19:04 356 6 gusting 8 9.4
2017-Apr-26 18:59 351 6 gusting 8 9.4
2017-Apr-26 18:54 029 2 gusting 6 9.4
2017-Apr-26 18:49 027 4 gusting 5 9.4
2017-Apr-26 18:44 023 1 gusting 6 9.4
2017-Apr-26 18:39 023 9.4
2017-Apr-26 18:34 021 6 gusting 7 9.4
2017-Apr-26 18:29 031 3 gusting 6 9.4
2017-Apr-26 18:24 027 6 gusting 6 9.4
2017-Apr-26 18:19 027 4 gusting 6 8.9
2017-Apr-26 18:14 027 5 gusting 5 8.9
2017-Apr-26 18:00 018 5 gusting 9 8.9
2017-Apr-26 17:45 351 10 gusting 14 8.9
2017-Apr-26 17:40 337 12 gusting 15 8.9
2017-Apr-26 17:35 332 12 gusting 15 8.9
2017-Apr-26 17:30 337 10 gusting 16 9.4
2017-Apr-26 17:25 308 8 gusting 16 10.0
2017-Apr-26 17:20 307 8 gusting 15 11.1
2017-Apr-26 17:15 145 4 gusting 6 11.1
2017-Apr-26 17:10 145 11.1
2017-Apr-26 17:00 163 1 gusting 9 11.1
2017-Apr-26 16:55 109 4 gusting 10 11.1
2017-Apr-26 16:50 123 5 gusting 10 11.1
2017-Apr-26 16:45 158 5 gusting 8 11.1
2017-Apr-26 16:40 125 0 gusting 8 10.6
2017-Apr-26 16:35 175 3 gusting 7 10.6
2017-Apr-26 16:30 106 1 gusting 10 10.6
2017-Apr-26 16:25 154 3 gusting 10 10.6
2017-Apr-26 16:20 141 10 gusting 10 10.6
2017-Apr-26 16:15 134 5 gusting 7 10.6
2017-Apr-26 16:10 108 6 gusting 7 10.6
2017-Apr-26 16:05 114 3 gusting 6 10.6
2017-Apr-26 16:00 124 1 gusting 6 10.6
2017-Apr-26 15:50 143 0 gusting 7 10.6
2017-Apr-26 15:45 099 3 gusting 7 10.0
2017-Apr-26 15:40 198 10.0
2017-Apr-26 15:35 170 3 gusting 6 10.0
2017-Apr-26 15:30 196 1 gusting 7 10.0
2017-Apr-26 15:25 122 0 gusting 7 10.0
2017-Apr-26 15:20 156 1 gusting 7 10.0
2017-Apr-26 15:15 114 2 gusting 7 10.0
2017-Apr-26 15:10 112 3 gusting 6 10.0
2017-Apr-26 15:00 128 0 gusting 7 10.0
2017-Apr-26 14:55 137 3 gusting 5 10.0
2017-Apr-26 14:50 137 1 gusting 6 10.0
2017-Apr-26 14:45 120 1 gusting 6 10.0
2017-Apr-26 14:40 139 10.0
2017-Apr-26 14:35 126 2 gusting 7 10.0
2017-Apr-26 14:30 133 0 gusting 7 9.4
2017-Apr-26 14:25 137 7 gusting 8 9.4
2017-Apr-26 14:20 172 0 gusting 10 9.4
2017-Apr-26 14:15 129 4 gusting 10 9.4
2017-Apr-26 14:10 156 2 gusting 7 9.4
2017-Apr-26 14:05 143 4 gusting 6 9.4
2017-Apr-26 14:00 150 3 gusting 7 9.4
2017-Apr-26 13:50 108 6 gusting 9 9.4
2017-Apr-26 13:45 133 4 gusting 9 9.4
2017-Apr-26 13:40 145 6 gusting 7 9.4
2017-Apr-26 13:35 118 2 gusting 6 9.4
2017-Apr-26 13:30 064 2 gusting 7 9.4
2017-Apr-26 13:25 164 6 gusting 8 9.4
2017-Apr-26 13:20 132 5 gusting 8 9.4
2017-Apr-26 13:15 129 2 gusting 9 9.4
2017-Apr-26 13:10 117 1 gusting 9 9.4
2017-Apr-26 13:05 134 6 gusting 7 9.4
2017-Apr-26 13:00 108 3 gusting 7 9.4
2017-Apr-26 12:55 091 9.4
2017-Apr-26 12:50 139 4 gusting 7 9.4
2017-Apr-26 12:45 154 4 gusting 6 9.4
2017-Apr-26 12:40 071 1 gusting 4 9.4
2017-Apr-26 12:35 122 1 gusting 6 9.4
2017-Apr-26 12:30 167 1 gusting 8 9.4
2017-Apr-26 12:25 122 2 gusting 8 9.4
2017-Apr-26 12:20 140 5 gusting 9 9.4
2017-Apr-26 12:15 142 0 gusting 11 10.0
2017-Apr-26 12:10 080 3 gusting 11 10.0
2017-Apr-26 12:05 116 7 gusting 13 10.0
2017-Apr-26 12:00 105 3 gusting 13 10.0
2017-Apr-26 11:55 131 3 gusting 13 10.0
2017-Apr-26 11:50 102 1 gusting 15 10.0
2017-Apr-26 11:45 148 12 gusting 15 10.0
2017-Apr-26 11:40 133 6 gusting 15 10.0
2017-Apr-26 11:35 118 0 gusting 15 10.0
2017-Apr-26 11:30 102 4 gusting 13 10.0
2017-Apr-26 11:25 199 2 gusting 13 10.0
2017-Apr-26 11:20 144 1 gusting 16 10.0
2017-Apr-26 11:15 127 6 gusting 16 10.0
2017-Apr-26 11:10 086 7 gusting 19 10.0
2017-Apr-26 11:05 135 11 gusting 19 10.0
2017-Apr-26 11:00 108 9 gusting 13 10.0
2017-Apr-26 10:55 087 7 gusting 12 10.0
2017-Apr-26 10:50 097 3 gusting 11 10.0
2017-Apr-26 10:45 113 4 gusting 11 10.0
2017-Apr-26 10:40 133 7 gusting 12 10.0
2017-Apr-26 10:35 087 2 gusting 12 10.0
2017-Apr-26 10:30 129 4 gusting 13 10.0
2017-Apr-26 10:25 152 7 gusting 13 10.0
2017-Apr-26 10:20 127 1 gusting 5 10.0
2017-Apr-26 10:15 187 10.0
2017-Apr-26 10:10 070 5 gusting 9 10.0
2017-Apr-26 10:05 083 1 gusting 6 10.0
2017-Apr-26 10:00 152 2 gusting 6 10.0
2017-Apr-26 09:55 189 4 gusting 6 10.0
2017-Apr-26 09:50 145 1 gusting 8 10.0
2017-Apr-26 09:45 245 10.0
2017-Apr-26 09:40 356 5 gusting 8 10.0
2017-Apr-26 09:35 186 1 gusting 8 10.0
2017-Apr-26 09:30 054 0 gusting 7 10.0
2017-Apr-26 09:25 206 1 gusting 9 10.0
2017-Apr-26 09:20 160 10.0
2017-Apr-26 09:15 110 6 gusting 10 10.0
2017-Apr-26 09:10 147 5 gusting 10 10.0
2017-Apr-26 09:05 175 10.0
2017-Apr-26 09:00 096 10.0
2017-Apr-26 08:55 152 0 gusting 6 10.0
2017-Apr-26 08:50 006 1 gusting 6 10.0
2017-Apr-26 08:45 168 10.0
2017-Apr-26 08:40 132 6 gusting 9 10.0
2017-Apr-26 08:35 152 1 gusting 6 10.0
2017-Apr-26 08:30 163 4 gusting 6 10.0
2017-Apr-26 08:25 220 10.0
2017-Apr-26 08:20 039 10.0
2017-Apr-26 08:15 332 1 gusting 5 10.0
2017-Apr-26 08:10 021 3 gusting 9 10.0
2017-Apr-26 08:05 129 10.0
2017-Apr-26 08:00 094 3 gusting 11 10.0
2017-Apr-26 07:55 095 3 gusting 11 10.0
2017-Apr-26 07:50 112 6 gusting 9 10.0
2017-Apr-26 07:45 108 3 gusting 9 10.0
2017-Apr-26 07:40 118 1 gusting 6 10.0
2017-Apr-26 07:35 093 1 gusting 7 10.0
2017-Apr-26 07:30 104 0 gusting 9 10.0
2017-Apr-26 07:25 148 4 gusting 9 10.0
2017-Apr-26 07:20 122 2 gusting 9 10.0
2017-Apr-26 07:14 114 2 gusting 9 10.0
2017-Apr-26 07:10 098 10.0
2017-Apr-26 07:05 135 1 gusting 9 10.0
2017-Apr-26 06:54 120 10.0
2017-Apr-26 06:49 132 6 gusting 10 10.0
2017-Apr-26 06:45 131 5 gusting 10 10.0
2017-Apr-26 06:39 095 0 gusting 6 10.0
2017-Apr-26 06:34 118 5 gusting 9 10.0
2017-Apr-26 06:30 115 1 gusting 9 10.0
2017-Apr-26 06:25 095 8 gusting 10 10.0
2017-Apr-26 06:19 129 5 gusting 10 10.0
2017-Apr-26 06:14 086 3 gusting 6 10.0
2017-Apr-26 06:09 125 1 gusting 7 10.0
2017-Apr-26 06:04 081 2 gusting 8 10.0
2017-Apr-26 06:00 118 6 gusting 8 10.0
2017-Apr-26 05:55 081 0 gusting 6 10.0
2017-Apr-26 05:49 104 2 gusting 8 10.0
2017-Apr-26 05:44 100 6 gusting 8 10.0
2017-Apr-26 05:34 107 1 gusting 8 10.0
2017-Apr-26 05:24 145 2 gusting 5 10.0
2017-Apr-26 05:19 143 10.0
2017-Apr-26 05:09 142 1 gusting 5 10.0
2017-Apr-26 05:00 129 2 gusting 7 10.0
2017-Apr-26 04:54 146 0 gusting 4 10.0
2017-Apr-26 04:49 144 10.0
2017-Apr-26 04:39 122 1 gusting 9 10.0
2017-Apr-26 04:34 131 10.0
2017-Apr-26 04:25 109 3 gusting 6 10.0
2017-Apr-26 04:19 163 4 gusting 6 10.0
2017-Apr-26 04:10 156 5 gusting 7 10.0
2017-Apr-26 04:04 162 1 gusting 7 10.0
2017-Apr-26 03:55 145 6 gusting 6 10.0
2017-Apr-26 03:50 120 4 gusting 6 10.0
2017-Apr-26 03:45 122 2 gusting 7 10.0
2017-Apr-26 03:40 130 1 gusting 7 10.0
2017-Apr-26 03:35 159 1 gusting 7 10.0
2017-Apr-26 03:30 132 10.0
2017-Apr-26 03:25 141 10.0
2017-Apr-26 03:20 181 6 gusting 10 10.0
2017-Apr-26 03:15 142 3 gusting 11 10.0
2017-Apr-26 03:10 310 10.0
2017-Apr-26 03:05 125 1 gusting 9 10.6
2017-Apr-26 03:00 164 2 gusting 8 10.6
2017-Apr-26 02:55 097 3 gusting 11 10.6
2017-Apr-26 02:50 120 4 gusting 11 11.1
2017-Apr-26 02:45 127 5 gusting 13 11.1
2017-Apr-26 02:40 125 3 gusting 13 11.1
2017-Apr-26 02:35 121 4 gusting 9 11.1
2017-Apr-26 02:30 125 2 gusting 9 11.1
2017-Apr-26 02:25 129 2 gusting 6 11.1
2017-Apr-26 02:20 154 5 gusting 9 11.7
2017-Apr-26 02:15 122 5 gusting 9 11.7
2017-Apr-26 02:10 158 3 gusting 7 11.7
2017-Apr-26 02:05 121 2 gusting 9 11.7
2017-Apr-26 02:00 143 3 gusting 9 12.2
2017-Apr-26 01:55 110 1 gusting 7 12.2
2017-Apr-26 01:50 130 5 gusting 10 12.2
2017-Apr-26 01:45 052 12.8
2017-Apr-26 01:40 131 0 gusting 8 12.8
2017-Apr-26 01:35 112 0 gusting 7 12.8
2017-Apr-26 01:30 119 2 gusting 7 12.8
2017-Apr-26 01:25 087 1 gusting 10 12.8
2017-Apr-26 01:20 112 1 gusting 12 12.8
2017-Apr-26 01:15 075 5 gusting 12 12.8
2017-Apr-26 01:10 079 1 gusting 12 12.8
2017-Apr-26 01:05 113 2 gusting 12 13.3
2017-Apr-26 01:00 103 2 gusting 8 13.3
2017-Apr-26 00:55 094 2 gusting 7 13.3
2017-Apr-26 00:50 070 0 gusting 7 13.3
2017-Apr-26 00:45 118 4 gusting 7 13.3
2017-Apr-26 00:40 097 2 gusting 6 13.3
2017-Apr-26 00:35 079 0 gusting 10 13.3
2017-Apr-26 00:30 105 13.3
2017-Apr-26 00:25 101 6 gusting 13 13.3
2017-Apr-26 00:20 090 6 gusting 13 13.3
2017-Apr-26 00:15 079 5 gusting 11 13.3
2017-Apr-26 00:10 116 6 gusting 12 13.3
2017-Apr-26 00:05 102 2 gusting 13 13.3
2017-Apr-26 00:00 085 6 gusting 13 13.3
2017-Apr-25 23:55 112 6 gusting 12 13.3
2017-Apr-25 23:50 110 10 gusting 12 13.3
2017-Apr-25 23:45 083 2 gusting 12 13.3
2017-Apr-25 23:40 111 8 gusting 16 13.3
2017-Apr-25 23:35 124 7 gusting 16 13.3
2017-Apr-25 23:30 117 6 gusting 18 13.3
2017-Apr-25 23:25 099 7 gusting 18 13.3
2017-Apr-25 23:20 129 10 gusting 18 13.3
2017-Apr-25 23:15 118 4 gusting 12 13.3
2017-Apr-25 23:10 102 7 gusting 12 13.3
2017-Apr-25 23:05 089 6 gusting 16 13.3
2017-Apr-25 23:00 082 5 gusting 16 12.8
2017-Apr-25 22:55 168 4 gusting 14 13.3
2017-Apr-25 22:50 122 5 gusting 14 12.8
2017-Apr-25 22:45 122 5 gusting 15 13.3
2017-Apr-25 22:40 112 6 gusting 16 13.3
2017-Apr-25 22:35 152 3 gusting 17 13.3
2017-Apr-25 22:30 112 7 gusting 17 13.3
2017-Apr-25 22:25 132 7 gusting 15 13.3
2017-Apr-25 22:20 133 9 gusting 18 13.3
2017-Apr-25 22:15 108 7 gusting 18 13.3
2017-Apr-25 22:10 085 5 gusting 19 13.3
2017-Apr-25 22:05 122 10 gusting 19 13.3
2017-Apr-25 22:00 150 8 gusting 20 13.3
2017-Apr-25 21:55 075 7 gusting 20 13.3
2017-Apr-25 21:50 133 5 gusting 19 13.3
2017-Apr-25 21:45 122 9 gusting 19 13.9
2017-Apr-25 21:40 147 3 gusting 16 13.9
2017-Apr-25 21:35 087 9 gusting 18 13.9
2017-Apr-25 21:30 138 7 gusting 18 13.9
2017-Apr-25 21:25 116 9 gusting 15 13.9
2017-Apr-25 21:20 133 10 gusting 16 13.9
2017-Apr-25 21:15 114 9 gusting 16 13.9
2017-Apr-25 21:10 094 7 gusting 21 13.9
2017-Apr-25 21:05 137 9 gusting 21 13.9
2017-Apr-25 21:00 090 6 gusting 15 13.9
2017-Apr-25 20:55 118 8 gusting 15 13.9
2017-Apr-25 20:50 130 4 gusting 20 13.9
2017-Apr-25 20:45 106 8 gusting 20 13.9
2017-Apr-25 20:40 122 10 gusting 20 13.9
2017-Apr-25 20:35 077 9 gusting 20 13.9
2017-Apr-25 20:30 109 20 gusting 20 13.9
2017-Apr-25 20:25 166 8 gusting 16 13.9
2017-Apr-25 20:20 093 4 gusting 19 13.9
2017-Apr-25 20:15 102 14 gusting 19 13.9
2017-Apr-25 20:10 127 9 gusting 17 13.9
2017-Apr-25 20:05 105 6 gusting 17 13.9
2017-Apr-25 20:00 131 17 gusting 18 13.9
2017-Apr-25 19:50 104 6 gusting 18 13.9
2017-Apr-25 19:40 146 6 gusting 19 13.9
2017-Apr-25 19:35 095 6 gusting 18 13.9
2017-Apr-25 19:30 125 4 gusting 19 13.9
2017-Apr-25 19:25 124 4 gusting 19 13.9
2017-Apr-25 19:15 109 9 gusting 19 13.3
2017-Apr-25 19:10 116 6 gusting 19 12.8
2017-Apr-25 19:00 100 6 gusting 14 12.8
2017-Apr-25 18:55 082 1 gusting 14 12.8
2017-Apr-25 18:50 125 6 gusting 14 13.3
2017-Apr-25 18:45 118 6 gusting 13 13.3
2017-Apr-25 18:35 100 2 gusting 13 12.8
2017-Apr-25 18:30 100 7 gusting 13 12.8
2017-Apr-25 18:25 098 1 gusting 12 12.8
2017-Apr-25 18:20 124 9 gusting 13 12.8
2017-Apr-25 18:15 095 3 gusting 15 12.8
2017-Apr-25 18:10 144 9 gusting 15 12.8
2017-Apr-25 18:05 121 10 gusting 15 12.8
2017-Apr-25 18:00 135 5 gusting 14 12.8
2017-Apr-25 17:55 160 4 gusting 18 12.8
2017-Apr-25 17:50 098 6 gusting 19 12.8
2017-Apr-25 17:45 083 1 gusting 19 12.8
2017-Apr-25 17:40 139 10 gusting 13 12.8
2017-Apr-25 17:35 143 6 gusting 15 12.8
2017-Apr-25 17:30 113 4 gusting 15 12.8
2017-Apr-25 17:25 108 9 gusting 13 12.8
2017-Apr-25 17:20 113 3 gusting 13 12.8
2017-Apr-25 17:15 077 6 gusting 13 12.8
2017-Apr-25 17:10 070 5 gusting 15 12.8
2017-Apr-25 17:05 095 3 gusting 15 12.8
2017-Apr-25 17:00 109 1 gusting 11 12.8
2017-Apr-25 16:55 133 6 gusting 13 12.2
2017-Apr-25 16:50 144 6 gusting 13 12.2
2017-Apr-25 16:45 128 4 gusting 9 12.2
2017-Apr-25 16:40 116 5 gusting 9 12.2
2017-Apr-25 16:35 147 3 gusting 12 11.7
2017-Apr-25 16:30 161 6 gusting 12 11.7
2017-Apr-25 16:25 137 4 gusting 10 11.1
2017-Apr-25 16:20 122 1 gusting 7 11.1
2017-Apr-25 16:15 164 3 gusting 10 10.6
2017-Apr-25 16:10 106 0 gusting 10 10.6
2017-Apr-25 16:05 133 3 gusting 9 10.6
2017-Apr-25 16:00 147 2 gusting 10 10.6